Location: Albany
(42.6526°N, 73.7562°W)
Time: 10:41:07
(UTC+00:00)

Daily predictions for brighter satellites

Satellite Brightness Start Highest point End
(mag) Time Altitude Azimuth Time Altitude Azimuth Time Altitude Azimuth
IRS-1C Rocket 4.2 21:50:10 10° SSE 21:55:19 58° ENE 22:00:31 10° N
Okean-O 3.4 21:55:44 10° SE 21:59:34 29° ENE 22:03:24 10° N
Cosmos 1538 Rocket 4.4 21:57:50 10° SSW 22:03:04 69° WNW 22:08:25 10° NNE
ASTEX 1 4.0 21:59:14 10° N 22:04:10 62° W 22:09:04 10° SSW
SeaSat 1 3.4 22:03:23 10° ESE 22:07:23 26° NE 22:11:23 10° N
Cosmos 1862 3.9 22:05:50 10° N 22:09:31 35° ENE 22:13:11 10° SE
BREEZE-M DEB (TANK) 4.2 22:08:10 10° WSW 22:11:57 79° NNW 22:24:52 11° ENE
Cosmos 1633 Rocket 3.6 22:08:23 10° N 22:12:30 37° ENE 22:16:36 10° SE
Cosmos 1151 Rocket 3.9 22:11:12 10° SSE 22:14:55 28° E 22:18:39 10° NNE
Cosmos 2034 Rocket 4.4 22:10:15 10° N 22:16:15 41° ENE 22:22:13 10° SE
Meteor 2-20 Rocket 4.4 22:11:03 10° S 22:17:08 75° E 22:23:17 10° NNE
Sich 1 3.0 22:13:40 10° N 22:18:03 72° E 22:22:26 10° SSE
Okean O Rocket 3.7 22:15:55 10° SSW 22:19:50 32° W 22:23:46 10° NNW
NOSS 2-3 (E) 3.6 22:16:37 10° SSW 22:20:54 77° SE 22:25:54 10° NE
Envisat 3.3 22:18:06 10° SE 22:22:52 43° ENE 22:27:40 10° N
USA 229 DEB 4.4 22:17:45 10° WSW 22:24:07 50° NW 22:30:50 10° NNE
USA 229 4.4 22:17:52 10° WSW 22:24:13 51° NW 22:30:55 10° NNE
SMAP 3.1 22:20:25 10° SSE 22:25:04 89° WSW 22:29:46 10° NNW
Cosmos 1328 Rocket 4.0 22:21:05 10° SSE 22:25:11 39° E 22:29:17 10° NNE
NOSS 3-1 (C) 4.2 22:21:59 10° WSW 22:27:21 48° NW 22:33:33 10° NNE
Cosmos 1633 2.4 22:23:52 10° N 22:27:31 74° E 22:31:08 10° SSE
Cosmos 1666 Rocket 3.5 22:23:35 10° N 22:27:57 67° E 22:32:14 10° SSE
NOSS 3-1 (A) 3.6 22:23:46 10° SW 22:29:15 69° NW 22:35:37 10° NNE
Cosmos 1515 Rocket 4.5 22:26:12 10° SSE 22:29:53 27° E 22:33:35 10° NNE
CSL-04 Rocket 4.5 22:25:34 10° ESE 22:29:59 27° ENE 22:34:24 10° N
NOSS 2-3 (D) 3.6 22:26:17 10° SSW 22:30:35 86° SE 22:35:36 10° NE
CORIOLIS 4.1 22:25:44 10° SSE 22:31:07 85° ENE 22:36:36 10° NNW
COSMO-SKYMED 1 3.2 22:27:20 10° NNE 22:31:18 34° E 22:35:14 10° SSE
Cosmos 158 Rocket 4.2 22:36:28 10° S 22:41:32 49° ESE 22:46:27 10° NNE
Tsikada Rocket 4.3 22:36:34 10° SSE 22:42:35 47° E 22:48:41 10° NNE
SL-16 R/B 3.5 22:39:38 10° SE 22:43:23 18° E 22:43:56 18° E
COBE Rocket 3.8 22:38:50 10° N 22:43:36 86° WNW 22:48:15 10° SSW
Cosmos 1980 Rocket 2.2 22:38:02 10° S 22:43:37 63° ESE 22:49:15 10° NNE
H-2A R/B 3.4 22:40:44 10° S 22:44:29 58° W 22:48:16 10° NNW
GPS 2-04 Rocket1 4.2 22:44:56 10° SW 22:47:40 22° S 22:49:22 15° SE
Cosmos 1371 Rocket 4.0 22:42:56 10° NNW 22:48:05 58° ENE 22:53:09 10° SE
NOAA 12 4.1 22:44:39 10° SSE 22:50:00 88° WSW 22:55:22 10° NNW
Geosat 3.9 22:45:16 10° NNE 22:50:19 74° ESE 22:55:20 10° SSW
Cosmos 2322 Rocket 3.6 22:46:51 10° SE 22:49:59 18° ESE 22:49:59 18° ESE
Cosmos 2297 Rocket 4.0 22:46:24 10° NW 22:51:26 34° WSW 22:56:27 10° SSW
Cosmos 2227 Rocket 3.9 22:47:00 10° NW 22:52:09 36° WSW 22:57:15 10° S
YAOGAN 1 3.0 22:49:58 10° SE 22:53:57 38° ENE 22:57:57 10° N
CENTAUR R/B 4.4 22:50:45 10° NNW 22:55:54 19° NNE 22:58:47 16° NE
GEOS 3 Rocket 3.6 22:52:48 14° NE 22:57:21 88° NW 23:02:39 10° SW
Cosmos 1470 Rocket 3.5 22:54:49 10° N 22:59:18 66° E 23:03:44 10° SSE
Cosmos 2112 Rocket 4.2 22:55:10 10° SSW 23:00:21 75° WNW 23:05:37 10° NNE
Cosmos 1464 Rocket 4.4 22:55:57 10° NNW 23:02:01 65° W 23:08:04 10° S
YAOGAN 6 2.3 23:00:52 10° SSE 23:04:20 72° ENE 23:07:49 10° N
Ariane Rocket 4.2 23:07:23 23° NE 23:07:23 23° NE 23:10:11 10° N
Cosmos 1680 Rocket 4.1 23:01:01 10° SW 23:06:08 57° WNW 23:11:19 10° NNE
Cosmos 2263 Rocket 2.6 23:02:45 10° N 23:07:56 37° ENE 23:09:28 31° E
APEX 3.8 23:12:08 10° SW 23:15:25 43° WNW 23:16:33 29° N
GENESIS II 4.2 23:13:39 10° SSW 23:17:39 70° ESE 23:18:20 56° ENE
ATLAS 3B R/B 4.3 23:14:15 10° NNW 23:18:01 15° NNE 23:18:48 15° NNE
SKYMED 2 3.8 23:15:12 10° N 23:19:32 72° WNW 23:23:51 10° SSW
COSMOS 2455 4.0 23:15:58 10° SSE 23:19:31 24° SE 23:19:31 24° SE
Cosmos 1697 Rocket 4.0 23:16:19 10° SW 23:21:33 38° WNW 23:26:48 10° N
CZ-4 R/B 1.5 23:20:32 10° S 23:24:40 75° WSW 23:28:44 10° NNW
FengYun 1-2 T 4.5 23:21:11 10° S 23:26:41 70° WSW 23:32:10 10° NNW
Lacrosse 4 Rocket 4.0 23:30:13 10° W 23:32:35 15° NW 23:34:57 10° N
Cosmos 2056 Rocket 4.0 23:34:28 10° NNW 23:39:32 59° WSW 23:44:38 10° S
Cosmos 1933 4.1 23:38:12 10° SSW 23:42:10 53° W 23:44:08 27° NNW
SeaSat 1 3.3 23:39:52 10° S 23:44:37 49° WSW 23:49:25 10° NW
Cosmos 1606 3.2 23:41:03 10° SSW 23:44:38 57° W 23:44:38 57° W
BREEZE-M R/B 4.2 23:52:32 10° SW 23:55:38 32° SSW 23:55:38 32° SSW
